Location: Arundel
(45.9667°N, 74.6189°W)
Time: 13:28:48
(UTC+00:00)

X-37B - Pass Details

Date: 08 December 2022
Orbit: 277 x 277 km, 45.0° (Epoch: 01 November)

Event Time Altitude Azimuth Distance (km) Brightness Sun altitude
Rises 21:58:01 0° 206° (SSW) 1,903 5.0 -7.6°
Reaches altitude 10° 22:01:03 10° 163° (SSE) 1,096 3.0 -8.1°
Maximum altitude 22:01:40 11° 148° (SSE) 1,062 2.7 -8.2°
Drops below altitude 10° 22:02:18 10° 133° (SE) 1,098 2.7 -8.3°
Enters shadow 22:03:29 - 111° (ESE) 1,325 2.9 -8.5°
